Theta_e
314 314 313 312 310 308 305 296 301 312 312 302 296 295 299 304 306 307 304 303 300 298 299 296 295 297 300 308 303 299 297 294 295 297 299 300 296 296 292 288 286 286 286 290
314 313 313 311 310 309 303 293 296 308 309 296 294 298 301 304 303 304 302 300 302 302 299 295 299 301 308 311 307 302 298 291 288 293 295 296 295 296 291 289 288 287 287 291
314 314 312 311 310 309 303 297 298 302 302 299 297 295 297 298 305 303 303 301 302 300 297 297 297 302 307 309 308 323 306 291 290 289 293 295 294 298 294 291 287 288 289 292
314 314 313 312 310 309 301 300 298 298 295 297 297 296 296 298 297 302 301 300 301 298 296 297 297 301 301 306 309 305 301 293 295 297 298 298 298 299 299 294 293 292 293 294
314 314 313 312 310 308 303 298 296 298 295 297 295 294 294 297 299 298 298 298 301 300 295 295 294 297 297 297 300 298 299 296 296 296 301 300 298 300 300 300 298 295 297 297
313 313 313 313 310 305 297 299 300 298 295 294 293 293 296 299 300 301 302 301 300 299 299 301 300 299 299 297 295 295 297 294 294 292 299 300 293 297 298 299 301 301 296 300
312 312 313 313 311 307 298 297 297 294 292 294 296 299 299 299 300 297 302 302 298 303 303 301 298 295 296 298 297 297 294 293 296 293 295 289 297 304 305 301 303 304 304 306
312 312 312 313 312 311 300 299 297 295 291 296 297 298 298 299 298 298 301 303 303 303 298 293 290 291 292 295 298 295 295 293 291 291 290 296 301 306 304 300 300 307 306 311
311 312 312 312 312 311 300 298 299 296 293 292 300 297 298 293 293 296 299 304 303 301 294 292 287 287 290 290 295 295 295 295 295 292 290 289 298 308 313 307 297 309 310 316
311 312 311 311 312 311 303 299 300 298 293 297 297 294 293 297 296 293 295 300 299 300 293 290 288 288 295 290 289 290 293 292 290 290 290 294 305 310 312 295 297 308 311 313
310 311 311 311 311 312 303 299 304 300 298 296 302 302 297 297 296 293 296 296 296 295 292 292 292 291 295 293 294 294 294 292 291 290 288 289 309 311 301 303 309 310 313 317
310 310 310 311 311 311 306 296 302 305 299 297 303 305 306 304 302 297 296 295 295 297 294 294 294 293 294 292 289 298 293 297 294 297 296 302 309 310 313 312 310 311 312 316
309 309 310 310 311 311 309 298 298 298 294 296 294 297 303 304 305 306 295 296 299 297 299 295 295 293 297 290 293 295 298 302 297 297 299 305 309 311 316 314 313 316 317 319
309 309 310 310 311 311 309 298 298 301 299 294 293 303 300 304 302 304 306 302 299 297 297 297 294 292 298 293 297 296 298 301 298 297 303 307 311 315 316 316 318 318 321 321
309 309 310 310 310 310 306 300 299 301 298 292 294 300 301 301 301 302 305 303 298 296 294 292 295 297 295 295 296 295 303 299 298 296 304 305 306 311 317 315 317 318 319 318
310 310 311 310 310 308 298 299 303 305 308 299 291 295 298 301 303 304 301 301 301 300 298 298 298 297 296 291 290 298 302 307 306 305 312 315 314 316 317 316 318 320 320 320
311 311 311 309 309 299 293 297 306 307 304 298 294 290 300 303 304 303 304 304 303 301 299 297 296 300 301 296 293 298 302 304 306 309 309 309 313 312 316 318 320 320 321 321
310 310 310 309 309 305 298 300 305 303 298 298 293 291 296 304 302 299 302 300 300 299 300 300 296 298 298 293 296 299 302 304 304 306 309 311 312 315 317 320 319 317 318 320
310 310 310 301 297 294 303 312 309 304 298 294 296 290 291 301 299 299 301 299 294 298 295 295 297 294 292 296 298 301 304 306 307 310 312 314 313 314 316 317 317 316 317 319
309 301 300 298 304 311 313 304 301 300 300 295 293 296 291 295 294 295 296 296 294 291 296 299 294 294 299 301 301 303 308 310 311 309 308 309 311 313 314 314 317 319 319 321
302 300 300 305 311 306 303 300 298 298 296 298 298 298 296 303 297 298 296 293 294 293 295 300 299 296 301 308 309 310 311 312 313 315 315 313 314 314 315 315 317 321 321 319
302 301 301 299 300 300 297 297 298 297 297 302 300 303 303 303 301 296 297 295 295 292 302 299 296 303 308 309 310 311 312 313 316 318 316 318 315 315 316 315 316 321 320 320
302 301 298 297 297 289 292 290 294 295 300 302 303 299 301 304 305 299 298 296 295 304 297 293 298 305 308 309 311 311 315 316 317 317 319 318 315 317 316 314 317 320 321 321
297 297 288 293 289 295 296 297 298 299 299 298 298 298 299 301 301 302 297 301 302 291 290 294 302 306 309 311 312 309 311 313 314 316 317 316 314 315 318 319 319 319 320 322
297 297 289 291 295 297 299 301 303 303 301 299 301 297 299 298 299 299 298 296 292 293 296 302 306 309 310 311 312 310 310 311 312 314 314 316 314 315 315 320 322 320 319 321
296 293 290 294 292 295 298 299 300 304 300 304 301 296 297 297 299 296 296 291 291 298 304 306 308 309 311 311 311 310 310 311 311 312 313 316 316 315 317 321 318 320 320 319
293 291 293 293 293 293 297 298 300 302 304 298 299 295 296 300 294 293 299 297 301 304 306 308 309 309 311 312 311 312 314 312 311 313 315 315 315 316 318 319 318 320 323 324
Wind_Speed
18 20 22 24 25 27 9 4 3 4 2 5 2 2 4 5 7 6 6 4 8 5 4 4 4 5 2 10 3 1 6 6 13 15 4 2 3 8 7 7 6 3 4 10
18 20 21 22 21 15 4 2 4 5 4 1 3 6 6 3 4 5 6 4 2 1 4 1 4 1 4 9 6 2 2 1 2 10 5 3 4 5 6 5 5 7 6 9
18 19 20 21 23 21 4 2 4 5 5 2 2 4 5 6 6 4 5 5 3 4 2 2 1 3 3 5 6 5 5 3 5 7 8 2 3 4 4 7 4 3 7 8
17 18 19 21 23 20 2 3 1 2 4 4 3 2 3 5 7 6 8 5 6 5 2 3 3 3 5 3 8 7 5 2 2 7 8 4 3 5 6 6 6 6 7 10
16 17 18 20 22 17 4 2 3 5 2 4 5 5 3 4 5 3 5 5 6 6 5 2 1 2 2 1 6 6 6 1 1 4 4 2 6 8 6 5 5 4 3 6
15 15 16 18 18 11 4 3 3 3 3 4 2 2 3 4 7 6 3 5 3 1 3 4 6 5 3 4 4 1 2 2 3 5 5 6 5 7 6 3 4 6 6 10
14 14 13 15 14 7 1 2 1 2 4 1 3 4 5 5 5 5 4 6 4 6 6 5 2 2 5 7 7 7 6 3 3 4 5 7 6 4 5 7 5 6 4 5
13 13 13 12 11 10 1 1 2 1 3 3 7 3 3 7 6 3 4 2 4 7 5 2 4 4 5 4 7 6 5 4 3 4 4 6 5 2 2 1 3 2 2 4
11 12 12 11 10 11 2 2 2 2 1 5 2 3 2 2 3 6 5 6 5 5 3 3 5 5 5 4 7 4 4 2 5 3 5 6 7 6 9 2 5 2 4 5
10 11 12 12 11 10 1 3 1 2 2 5 1 3 1 3 2 3 5 7 8 4 3 2 3 4 3 3 2 4 5 3 5 5 5 7 5 11 6 4 6 11 3 6
10 11 11 11 12 10 3 4 2 2 3 7 6 3 3 1 1 2 5 6 4 4 4 1 2 2 2 1 3 3 5 2 3 1 2 7 4 6 2 4 9 5 6 4
10 11 11 11 11 10 3 2 3 2 3 7 3 10 13 10 11 3 3 3 2 4 2 1 0 1 1 3 3 3 1 5 3 7 6 3 3 4 3 2 8 7 8 8
10 11 11 11 11 11 7 2 3 2 3 6 3 5 5 4 10 10 4 4 6 3 4 3 2 3 3 2 5 2 2 2 2 3 5 4 6 6 2 4 6 10 9 7
10 10 10 11 11 10 8 1 2 0 3 4 8 4 7 5 6 10 19 6 2 3 3 2 3 2 3 3 4 4 5 4 3 5 8 9 4 3 3 6 6 8 9 7
10 10 11 12 11 8 4 4 4 4 2 3 7 13 6 7 5 11 14 13 5 2 0 2 4 2 1 3 0 6 6 7 5 7 8 5 7 5 3 4 4 7 7 12
12 13 13 9 8 7 3 2 1 3 2 3 5 5 8 8 7 3 7 8 5 3 4 4 4 5 4 3 4 5 6 6 9 8 3 7 11 8 5 4 5 4 5 5
12 12 11 6 4 2 2 3 1 2 3 2 5 6 6 6 4 3 2 1 3 4 3 4 5 4 4 3 13 4 7 8 8 9 5 6 10 9 3 4 6 5 5 3
12 12 9 7 7 3 5 4 11 4 1 1 3 6 5 3 3 3 1 2 2 1 2 0 3 2 1 6 7 7 7 10 13 16 10 14 7 4 7 5 4 3 3 2
11 10 10 2 2 1 3 3 11 2 4 2 2 2 4 5 3 2 3 2 2 2 2 3 4 2 6 8 7 7 7 5 5 6 6 9 11 14 9 7 4 4 3 1
6 2 1 1 3 6 7 2 2 1 2 1 3 2 5 1 2 4 2 1 2 2 5 2 3 5 7 8 7 8 9 8 7 6 7 7 10 14 10 9 6 6 3 2
1 1 2 3 7 1 1 2 2 3 3 4 4 5 4 2 3 3 2 2 2 3 4 2 3 3 4 5 7 7 7 7 9 9 11 11 10 10 11 9 7 9 7 4
2 2 3 3 1 2 3 3 2 3 2 2 4 5 5 4 2 1 2 2 1 5 2 3 4 2 4 6 7 8 7 8 11 11 11 10 8 8 8 4 3 6 6 7
0 1 2 1 2 1 3 4 3 2 3 4 2 3 2 3 0 3 1 2 4 1 1 3 4 5 6 9 7 8 7 8 9 12 10 7 5 5 6 7 6 7 8 6
1 2 3 3 3 4 3 3 3 5 3 3 2 3 2 2 2 2 3 3 2 0 3 3 3 8 11 11 8 4 8 9 9 9 7 4 6 5 4 6 6 5 8 8
2 2 4 6 4 3 4 3 3 3 2 1 2 2 0 3 3 2 2 4 4 3 2 3 9 12 10 11 10 7 7 7 7 5 6 4 6 6 5 6 8 9 6 8
2 3 3 3 1 3 3 3 4 2 1 1 2 2 3 3 1 4 3 2 3 4 2 6 8 13 10 10 9 7 6 7 7 6 5 5 3 6 3 3 5 10 8 5
3 4 4 4 4 5 4 2 4 1 1 2 1 2 2 1 3 2 3 4 3 5 6 8 6 10 12 9 8 6 6 6 7 5 6 5 3 8 2 2 4 5 6 5
Wind_Direction
350 351 350 347 344 343 33 357 54 317 17 49 31 179 214 294 295 298 263 234 206 169 170 194 232 218 310 337 299 226 214 181 246 228 215 262 228 207 145 131 250 233 174 262
349 350 348 346 345 3 328 34 272 306 89 97 320 302 296 265 315 307 12 311 330 244 169 127 210 32 60 27 44 53 184 257 292 298 326 15 202 197 127 103 76 200 156 264
349 350 348 345 343 348 125 48 7 330 40 64 102 349 287 321 314 283 341 263 334 16 351 351 23 357 2 359 12 1 124 115 165 211 235 199 193 195 153 124 120 187 219 275
350 350 350 347 345 350 87 31 335 169 331 338 345 283 319 331 358 328 359 343 351 263 210 42 78 6 338 13 351 13 76 139 350 276 256 257 236 242 178 152 181 158 255 193
350 351 351 351 350 347 61 49 23 350 284 315 334 2 10 337 340 276 340 358 343 45 96 121 285 53 97 136 336 24 356 277 349 277 297 299 244 245 243 215 146 231 175 271
350 352 353 353 0 12 41 326 339 100 299 343 3 150 319 323 347 294 6 305 300 261 184 211 208 190 213 209 158 295 38 54 42 264 316 312 291 233 216 201 191 158 163 230
347 351 354 358 9 47 144 270 64 65 269 270 236 333 309 299 301 263 314 355 16 296 348 295 66 251 234 195 226 177 174 161 163 247 333 238 238 267 228 223 230 198 158 228
343 347 352 355 359 11 66 263 80 100 274 264 280 315 278 307 298 275 275 257 258 300 309 64 18 331 341 270 236 212 201 143 203 184 216 289 335 336 87 48 278 103 314 268
336 341 346 350 352 355 32 272 181 114 103 251 342 306 302 302 309 323 286 312 299 32 79 100 178 214 217 288 323 23 99 128 168 139 189 215 232 330 351 289 285 234 152 183
331 337 340 345 346 341 40 282 21 126 223 271 153 218 225 289 344 270 298 328 330 28 41 114 171 229 219 217 213 301 333 358 202 220 234 284 316 293 282 176 248 326 286 176
331 335 338 340 345 344 45 273 284 40 292 275 233 280 222 283 147 197 301 353 347 360 47 131 237 188 263 20 246 210 187 182 233 175 212 260 300 350 45 282 290 290 308 278
319 326 331 335 335 334 47 312 297 318 217 250 250 251 244 228 218 210 258 234 291 238 72 329 259 303 348 154 258 353 234 189 211 183 227 233 335 241 239 251 279 319 311 302
315 315 321 326 325 321 327 233 287 358 311 293 345 246 271 213 222 199 178 255 208 257 167 169 223 245 132 200 245 263 296 163 210 24 290 253 228 279 273 326 317 310 289 315
309 310 313 316 317 314 335 208 219 110 268 288 284 306 281 229 232 203 211 227 11 88 81 247 189 194 165 226 225 179 207 148 225 258 287 296 310 198 276 313 341 330 336 335
307 305 306 310 314 318 305 216 214 193 170 286 288 307 266 290 233 220 207 221 223 182 278 165 233 226 162 232 218 237 179 209 200 235 240 224 263 261 236 318 340 319 340 339
311 303 299 294 309 1 341 327 46 208 202 295 308 286 295 311 305 186 172 201 206 202 185 206 215 229 144 245 246 241 222 233 217 236 223 229 261 280 243 218 231 263 296 296
306 301 306 326 320 102 184 220 141 168 343 295 300 309 275 295 334 332 329 135 210 173 209 205 201 210 159 221 262 232 240 249 249 243 241 264 247 251 270 174 229 216 248 281
301 302 298 290 289 286 288 256 237 141 46 312 282 277 311 330 313 321 353 310 0 274 229 26 174 59 165 259 261 262 266 259 258 262 235 238 260 260 266 226 207 221 234 244
293 295 303 33 61 213 247 74 119 124 133 280 267 277 280 347 304 268 330 59 324 298 226 239 113 204 223 240 260 272 268 245 275 288 256 254 251 253 242 261 235 203 221 56
307 21 340 266 217 231 154 326 60 104 253 134 251 242 273 46 341 292 340 12 256 309 252 120 174 246 250 264 260 253 268 260 264 261 272 253 248 248 244 216 206 197 186 353
33 352 258 303 313 11 221 229 204 175 231 206 235 231 254 235 221 254 202 263 274 289 279 251 223 260 257 254 275 272 263 260 264 253 249 243 230 221 228 231 199 174 166 142
300 306 307 319 326 216 251 210 177 215 273 222 228 232 205 265 161 145 262 243 60 254 311 295 287 254 278 315 306 305 304 296 291 296 265 249 228 221 234 240 255 181 154 160
52 221 275 193 235 349 221 185 240 257 212 245 262 310 257 315 268 275 259 259 234 29 299 240 258 324 318 300 294 297 297 295 295 309 310 248 182 172 224 241 235 176 165 172
253 260 293 221 237 240 195 251 247 244 208 271 238 258 246 270 283 245 266 248 106 319 251 250 266 312 309 306 298 286 298 303 297 302 307 219 186 205 215 246 252 226 205 172
273 259 243 224 252 272 276 278 292 267 226 178 310 312 199 273 274 236 342 333 320 249 343 289 291 299 298 299 302 301 300 299 296 292 299 265 185 179 201 238 253 257 211 193
241 245 278 261 74 304 326 327 299 260 193 118 83 289 292 272 268 345 11 32 276 275 174 277 298 298 302 300 297 290 287 296 298 302 281 263 225 183 215 279 277 203 195 183
244 252 228 240 253 241 261 233 265 134 142 267 117 317 336 340 328 267 229 250 238 254 285 280 280 286 295 299 303 305 316 314 301 309 322 311 198 147 189 122 50 79 117 143